Location: Basses Si�yes
(44.0835°N, 6.2037°E)
Time: 18:21:28
(UTC+00:00)

Okean 1-7 - Pass Details

Date: 27 February 2020
Orbit: 592 x 618 km, 82.5° (Epoch: 01 April)

Event Time Altitude Azimuth Distance (km) Brightness Sun altitude
Rises 18:42:08 0° 350° (N) 2,865 6.7 -15.5°
Reaches altitude 10° 18:44:21 10° 349° (N) 1,961 5.8 -15.9°
Maximum altitude 18:48:41 78° 263° (W) 627 3.1 -16.7°
Drops below altitude 10° 18:53:01 10° 178° (S) 1,960 5.5 -17.4°
Sets 18:55:14 0° 177° (S) 2,864 6.4 -17.8°
